Regional Weather Roundup
Issued by NWS

Home | Current Version | Previous Version | Graphics & Text | Print | Product List | Glossary On
Versions: 1 2 3 4 5 6 7 8 9 10 11 12 13 14 15 16 17 18 19 20 21 22 23 24 25 26 27 28 29 30 31 32 33 34 35 36 37 38 39 40 41 42 43 44 45 46 47 48 49 50
000
ASUS43 KLOT 190912
RWRIL

ILLINOIS REGIONAL WEATHER ROUNDUP
NATIONAL WEATHER SERVICE CHICAGO/ROMEOVILLE IL
400 AM CDT SUN APR 19 2015

NOTE: "FAIR" INDICATES FEW OR NO CLOUDS BELOW 12,000 FEET WITH NO
SIGNIFICANT WEATHER AND/OR OBSTRUCTIONS TO VISIBILITY.

* THESE STATIONS ARE NOT UNDER NWS QUALITY CONTROL. THEY ALSO MAY NOT
  REPORT WEATHER SUCH AS PRECIPITATION OR FOG.

ILZ001-002-007-009-015-016-024-191000-
NORTHWEST ILLINOIS

CITY           SKY/WX    TMP DP  RH WIND       PRES   REMARKS
MOLINE         PTCLDY    52  38  58 CALM      29.82F
STERLING*      MOCLDY    54  39  58 E9        29.85F
SAVANNA*       CLOUDY    55  40  56 E6        29.84F
$$

ILZ003-004-008-010-011-017-018-191000-
NORTH CENTRAL ILLINOIS

CITY           SKY/WX    TMP DP  RH WIND       PRES   REMARKS
ROCKFORD       CLOUDY    55  30  38 E9        29.89F
FREEPORT*      CLOUDY    49  37  64 E5        29.88F
ROCHELLE*      MOCLDY    54  34  47 E13       29.86F
DE KALB*       MOCLDY    51  31  47 E10       29.88F
PERU*          MOCLDY    56  40  54 E12       29.85F
$$

ILZ005-006-012>014-019>023-191000-
NORTHEAST ILLINOIS

CITY           SKY/WX    TMP DP  RH WIND       PRES   REMARKS
CHICAGO-OHARE  MOCLDY    53  28  38 E7        29.89F
CHICAGO-MIDWAY MOCLDY    56  30  37 E8        29.90F
AURORA         MOCLDY    53  31  42 E8        29.88F
LANSING*       MOCLDY    55  27  33 SE14      29.90F
JOLIET*        MOCLDY    58  34  40 E14       29.88F
WAUKEGAN       MOCLDY    45  32  60 NE8       29.93F
DUPAGE AIRPORT PTCLDY    52  29  41 E7        29.88F
KANKAKEE*      CLOUDY    55  37  51 E13G20    29.89S
WHEELING       PTCLDY    48  32  53 NE6       29.92F
MORRIS*        CLOUDY    57  34  42 SE15      29.85F
ROMEOVILLE*    MOCLDY    55  30  38 E8        29.88F
NORTHERLY ISL    N/A     51  35  54 NE6         N/A
$$

LMZ740>746-191000-
SOUTHERN LAKE MICHIGAN

STATION/POSITION SKY/WX   TEMP    WIND        PRES    VSBY  WAVE
                          AIR SEA DIR/SP/G                  HT/PER
                          (F)     (DEG/KT/KT) (MB)    (MI)  (FT/S)
HARRISON CRIB              51     130/  7/  9   N/A
BURNHAM HARBOR             50      50/  4/  6   N/A
CALUMET HARBOR             53      90/  6/  8   N/A
BURNS HARBOR               57     120/ 15/ 24 1013.5F
MICHIGAN CITY              56      90/ 12/ 17   N/A
MICHIGAN CITY 6N           52 45  130/ 12/ 16   N/A           3/ 5
$$

ILZ025>027-034>036-040-047-049-050-058-095>099-191000-
WEST-CENTRAL ILLINOIS

CITY           SKY/WX    TMP DP  RH WIND       PRES   REMARKS
QUINCY         MOCLDY    59  54  83 NE5       29.76F
GALESBURG*     PTCLDY    54  43  65 E9        29.80F
MACOMB*        PTCLDY    57  49  75 E6        29.81F
JACKSONVILLE*  CLOUDY    60  50  69 E7        29.77F
PITTSFIELD*    CLOUDY    62  51  66 CALM      29.77F
$$

ILZ028>032-037-038-041>044-048-051>054-059>061-191000-
CENTRAL ILLINOIS

CITY           SKY/WX    TMP DP  RH WIND       PRES   REMARKS
PONTIAC        CLOUDY    56  44  63 E13       29.86F
BLOOMINGTON    CLOUDY    56  50  80 E10       29.84F
DECATUR        CLOUDY    58  49  72 E10       29.80F
PEORIA         MOCLDY    58  43  57 E12       29.81F
LACON*         MOCLDY    54  43  66 E9        29.83F
LINCOLN*       CLOUDY    59  49  70 E7        29.78F
SPRINGFIELD    MOCLDY    59  48  67 E8        29.78F
TAYLORVILLE    MOCLDY    59  48  67 E8        29.77F
$$

ILZ033-039-045-046-055>057-062-063-191000-
EAST-CENTRAL ILLINOIS

CITY           SKY/WX    TMP DP  RH WIND       PRES   REMARKS
CHAMPAIGN      CLOUDY    60  51  72 E12       29.83F
DANVILLE*      CLOUDY    56  47  71 E6        29.83F
RANTOUL*       CLOUDY    59  50  71 E14       29.84F
MATTOON        CLOUDY    63  47  55 E9        29.80F
PARIS*         CLOUDY    59  51  74 NE6       29.83S
$$

ILZ079-100>102-191000-
SOUTHWEST ILLINOIS

CITY           SKY/WX    TMP DP  RH WIND       PRES   REMARKS
ALTON          CLOUDY    62  48  60 E6        29.75F
BELLEVILLE     CLOUDY    62  54  74 E2        29.73F
CAHOKIA*       MOCLDY    63  55  75 CALM      29.73F
SPARTA*        CLOUDY    64  54  72 E7        29.75S
$$

ILZ064>066-069>071-074>076-080>082-084>086-088>090-092>094-191000-
SOUTH-CENTRAL ILLINOIS

CITY           SKY/WX    TMP DP  RH WIND       PRES   REMARKS
CARBONDALE     CLOUDY    63  58  83 SE5       29.74F
CAIRO*         RAIN      64  64  97 E5        29.71F
EFFINGHAM*     CLOUDY    65  44  47 NE6       29.79F
MARION         RAIN      64  61  88 E3        29.74F
MT. VERNON     CLOUDY    64  48  55 E3        29.76F
CENTRALIA*     MOCLDY    62  49  61 E6        29.76F
SALEM*         MOCLDY    66  48  52 E3        29.77F
METROPOLIS*    LGT RAIN  64  64 100 CALM      29.72F
$$

ILZ067-068-072-073-078-083-087-091-191000-
SOUTHEAST ILLINOIS

CITY           SKY/WX    TMP DP  RH WIND       PRES   REMARKS
LAWRENCEVILLE  CLOUDY    66  48  52 E6        29.78F
FLORA*         CLOUDY    59  51  76 CALM      29.78S
FAIRFIELD*     LGT RAIN  63  52  66 CALM      29.75F
HARRISBURG*    LGT RAIN  64  59  85 E6        29.75F
ROBINSON*      CLOUDY    61  49  66 NE5       29.80F
CARMI*         LGT RAIN  63  51  64 E3        29.75F
$$

ABBREVIATIONS USED IN REMARKS
   TC - TEMPERATURE IN CELSIUS
  WCI - WIND CHILL INDEX
   HX - HEAT INDEX
  VSB - VISIBILITY
$$




USA.gov is the U.S. government's official web portal to all federal, state and local government web resources and services.